When you browse on this site, cookies collect data to enhance your experience and personalize the content and advertising you see.
Visit our Privacy Policy to learn more. By continuing to use the site, you agree to this use of cookies and data.
  • en France
  • Liste des pays
  • À 7 jours
  • Température de l'eau
  • Carte satellitaire
  • Carte météo
  • Widgets météo
  • user-avatar
    Se connecter

    Météo par heure à San Miguel de Tucumán

    Ce jour, 24 Janvier, Jeudi

    Heure Température Précipitation Vent Pression Humidité
    00:00 +30°C° 0 mm 1 m/s 718 mmHg 64%
    01:00 +30°C° 0 mm 1 m/s 718 mmHg 63%
    02:00 +29°C° 0 mm 1 m/s 718 mmHg 62%
    03:00 +29°C° 0 mm 1 m/s 718 mmHg 63%
    04:00 +29°C° 0 mm 1 m/s 718 mmHg 64%
    05:00 +29°C° 0 mm 1 m/s 717 mmHg 64%
    06:00 +29°C° 0 mm 1 m/s 718 mmHg 64%
    07:00 +30°C° 0 mm 1 m/s 718 mmHg 64%
    08:00 +31°C° 0 mm 1 m/s 718 mmHg 64%
    09:00 +32°C° 0 mm 1 m/s 718 mmHg 60%
    10:00 +34°C° 0 mm 1 m/s 719 mmHg 56%
    11:00 +36°C° 0 mm 2 m/s 719 mmHg 52%
    12:00 +37°C° 0 mm 2 m/s 718 mmHg 49%
    13:00 +38°C° 0 mm 2 m/s 718 mmHg 47%
    14:00 +39°C° 0 mm 2 m/s 718 mmHg 45%
    15:00 +38°C° 0 mm 2 m/s 717 mmHg 46%
    16:00 +38°C° 0 mm 2 m/s 717 mmHg 47%
    17:00 +38°C° 0 mm 2 m/s 716 mmHg 48%
    18:00 +35°C° 0 mm 1 m/s 716 mmHg 55%
    19:00 +33°C° 0 mm 1 m/s 716 mmHg 62%
    20:00 +31°C° 0 mm 1 m/s 717 mmHg 69%
    21:00 +31°C° 0.1 mm 2 m/s 717 mmHg 68%
    22:00 +30°C° 0.1 mm 2 m/s 718 mmHg 66%
    23:00 +30°C° 0.1 mm 2 m/s 718 mmHg 65%

    Demain, 25 Janvier, Vendredi

    Heure Température Précipitation Vent Pression Humidité
    00:00 +30°C° 0 mm 2 m/s 718 mmHg 61%
    01:00 +30°C° 0 mm 2 m/s 717 mmHg 58%
    02:00 +30°C° 0 mm 2 m/s 717 mmHg 54%
    03:00 +30°C° 0 mm 2 m/s 716 mmHg 57%
    04:00 +29°C° 0 mm 1 m/s 716 mmHg 59%
    05:00 +29°C° 0 mm 1 m/s 715 mmHg 61%
    06:00 +30°C° 0 mm 1 m/s 716 mmHg 61%
    07:00 +31°C° 0 mm 1 m/s 716 mmHg 60%
    08:00 +31°C° 0 mm 1 m/s 717 mmHg 59%
    09:00 +33°C° 0 mm 1 m/s 717 mmHg 54%
    10:00 +35°C° 0 mm 1 m/s 717 mmHg 48%
    11:00 +37°C° 0 mm 1 m/s 717 mmHg 42%
    12:00 +40°C° 0 mm 2 m/s 717 mmHg 38%
    13:00 +41°C° 0 mm 2 m/s 717 mmHg 33%
    14:00 +43°C° 0 mm 2 m/s 717 mmHg 29%
    15:00 +42°C° 0 mm 2 m/s 716 mmHg 31%
    16:00 +42°C° 0 mm 2 m/s 716 mmHg 33%
    17:00 +41°C° 0 mm 2 m/s 715 mmHg 35%
    18:00 +39°C° 0 mm 2 m/s 715 mmHg 41%
    19:00 +36°C° 0 mm 2 m/s 716 mmHg 47%
    20:00 +34°C° 0 mm 2 m/s 716 mmHg 54%
    21:00 +32°C° 0 mm 2 m/s 716 mmHg 52%
    22:00 +32°C° 0 mm 2 m/s 717 mmHg 50%
    23:00 +32°C° 0 mm 2 m/s 718 mmHg 48%

    Après-demain, 26 Janvier, Samedi

    Heure Température Précipitation Vent Pression Humidité
    00:00 +31°C° 0 mm 2 m/s 717 mmHg 48%
    01:00 +31°C° 0 mm 2 m/s 717 mmHg 47%
    02:00 +30°C° 0 mm 2 m/s 716 mmHg 47%
    03:00 +30°C° 0 mm 1 m/s 716 mmHg 48%
    04:00 +29°C° 0 mm 1 m/s 716 mmHg 48%
    05:00 +29°C° 0 mm 1 m/s 716 mmHg 49%
    06:00 +30°C° 0 mm 1 m/s 717 mmHg 49%
    07:00 +31°C° 0 mm 1 m/s 718 mmHg 49%
    08:00 +30°C° 0 mm 0 m/s 718 mmHg 50%
    09:00 +34°C° 0 mm 1 m/s 719 mmHg 45%
    10:00 +35°C° 0 mm 1 m/s 719 mmHg 40%
    11:00 +38°C° 0 mm 2 m/s 720 mmHg 35%
    12:00 +39°C° 0 mm 2 m/s 720 mmHg 33%
    13:00 +40°C° 0 mm 1 m/s 719 mmHg 31%
    14:00 +41°C° 0 mm 1 m/s 719 mmHg 30%
    15:00 +40°C° 0 mm 1 m/s 718 mmHg 32%
    16:00 +39°C° 0 mm 2 m/s 718 mmHg 35%
    17:00 +39°C° 0 mm 2 m/s 717 mmHg 38%
    18:00 +36°C° 0.3 mm 2 m/s 718 mmHg 46%
    19:00 +32°C° 0.3 mm 2 m/s 718 mmHg 54%
    20:00 +30°C° 0.3 mm 2 m/s 718 mmHg 61%
    21:00 +29°C° 1.5 mm 2 m/s 718 mmHg 68%
    22:00 +27°C° 1.5 mm 2 m/s 719 mmHg 75%
    23:00 +26°C° 1.5 mm 2 m/s 719 mmHg 81%

    27 Janvier, Dimanche

    Heure Température Précipitation Vent Pression Humidité
    00:00 +26°C° 2.1 mm 2 m/s 719 mmHg 83%
    01:00 +26°C° 2.1 mm 2 m/s 719 mmHg 84%
    02:00 +26°C° 2.1 mm 2 m/s 719 mmHg 86%
    03:00 +26°C° 1.1 mm 2 m/s 719 mmHg 86%
    04:00 +26°C° 1.1 mm 2 m/s 719 mmHg 85%
    05:00 +25°C° 1.1 mm 1 m/s 719 mmHg 85%
    06:00 +26°C° 0.1 mm 1 m/s 719 mmHg 84%
    07:00 +27°C° 0.1 mm 1 m/s 720 mmHg 83%
    08:00 +27°C° 0.1 mm 1 m/s 720 mmHg 82%
    09:00 +29°C° 0 mm 1 m/s 720 mmHg 73%
    10:00 +31°C° 0 mm 1 m/s 720 mmHg 65%
    11:00 +33°C° 0 mm 1 m/s 721 mmHg 56%
    12:00 +33°C° 0 mm 1 m/s 720 mmHg 55%
    13:00 +35°C° 0 mm 2 m/s 720 mmHg 54%
    14:00 +36°C° 0 mm 2 m/s 719 mmHg 52%
    15:00 +35°C° 0.1 mm 2 m/s 719 mmHg 55%
    16:00 +35°C° 0.1 mm 2 m/s 718 mmHg 59%
    17:00 +34°C° 0.1 mm 2 m/s 717 mmHg 62%
    18:00 +32°C° 0 mm 2 m/s 717 mmHg 67%
    19:00 +31°C° 0 mm 1 m/s 717 mmHg 73%
    20:00 +29°C° 0 mm 1 m/s 718 mmHg 78%
    21:00 +29°C° 0.1 mm 1 m/s 718 mmHg 78%
    22:00 +29°C° 0.1 mm 1 m/s 718 mmHg 78%
    23:00 +28°C° 0.1 mm 1 m/s 719 mmHg 78%

    28 Janvier, Lundi

    Heure Température Précipitation Vent Pression Humidité
    00:00 +28°C° 1 mm 1 m/s 718 mmHg 80%
    01:00 +27°C° 1 mm 1 m/s 718 mmHg 83%
    02:00 +26°C° 1 mm 1 m/s 718 mmHg 86%
    03:00 +26°C° 1.1 mm 1 m/s 718 mmHg 85%
    04:00 +26°C° 1.1 mm 1 m/s 718 mmHg 85%
    05:00 +26°C° 1.1 mm 1 m/s 717 mmHg 85%
    06:00 +27°C° 0.4 mm 1 m/s 718 mmHg 84%
    07:00 +27°C° 0.4 mm 1 m/s 718 mmHg 83%
    08:00 +28°C° 0.4 mm 1 m/s 719 mmHg 82%
    09:00 +30°C° 0 mm 1 m/s 719 mmHg 74%
    10:00 +32°C° 0 mm 2 m/s 719 mmHg 65%
    11:00 +34°C° 0 mm 2 m/s 719 mmHg 56%
    12:00 +35°C° 0 mm 2 m/s 718 mmHg 53%
    13:00 +36°C° 0 mm 2 m/s 718 mmHg 50%
    14:00 +37°C° 0 mm 3 m/s 717 mmHg 47%
    15:00 +37°C° 0 mm 2 m/s 717 mmHg 49%
    16:00 +37°C° 0 mm 2 m/s 716 mmHg 51%
    17:00 +36°C° 0 mm 2 m/s 716 mmHg 54%
    18:00 +34°C° 0 mm 2 m/s 716 mmHg 59%
    19:00 +32°C° 0 mm 2 m/s 716 mmHg 64%
    20:00 +30°C° 0 mm 2 m/s 716 mmHg 69%
    21:00 +29°C° 0.1 mm 2 m/s 717 mmHg 69%
    22:00 +29°C° 0.1 mm 2 m/s 717 mmHg 69%
    23:00 +28°C° 0.1 mm 2 m/s 718 mmHg 69%

    29 Janvier, Mardi

    Heure Température Précipitation Vent Pression Humidité
    00:00 +28°C° 0.1 mm 2 m/s 717 mmHg 69%
    01:00 +28°C° 0.1 mm 2 m/s 717 mmHg 70%
    02:00 +28°C° 0.1 mm 2 m/s 716 mmHg 70%
    03:00 +28°C° 0 mm 2 m/s 716 mmHg 69%
    04:00 +28°C° 0 mm 2 m/s 716 mmHg 69%
    05:00 +28°C° 0 mm 1 m/s 716 mmHg 69%
    06:00 +28°C° 0 mm 1 m/s 716 mmHg 69%
    07:00 +29°C° 0 mm 1 m/s 716 mmHg 68%
    08:00 +29°C° 0 mm 1 m/s 717 mmHg 68%
    09:00 +31°C° 0 mm 2 m/s 717 mmHg 61%
    10:00 +34°C° 0 mm 2 m/s 717 mmHg 53%
    11:00 +36°C° 0 mm 3 m/s 716 mmHg 46%
    12:00 +37°C° 0 mm 3 m/s 716 mmHg 44%
    13:00 +38°C° 0 mm 4 m/s 715 mmHg 41%
    14:00 +40°C° 0 mm 4 m/s 715 mmHg 39%
    15:00 +38°C° 0 mm 4 m/s 715 mmHg 42%
    16:00 +38°C° 0 mm 4 m/s 714 mmHg 45%
    17:00 +37°C° 0 mm 3 m/s 714 mmHg 48%
    18:00 +35°C° 0.1 mm 3 m/s 714 mmHg 53%
    19:00 +33°C° 0.1 mm 3 m/s 715 mmHg 58%
    20:00 +31°C° 0.1 mm 2 m/s 715 mmHg 62%
    21:00 +30°C° 0 mm 2 m/s 715 mmHg 63%
    22:00 +30°C° 0 mm 2 m/s 716 mmHg 63%
    23:00 +30°C° 0 mm 2 m/s 716 mmHg 64%
    Voir plus